| time (UTC) | temp F | wind direction | speed MPH | gust MPH | rain 1hr in | rain 24hr in | rain mn in | humidity % | barometer mb |
| 20260508080039 | 35 | 336 | 1.0 | 8.0 | 0.00 | 0.00 | 0.00 | 82 | 1003.6 |
| 20260508074536 | 34 | 302 | 1.0 | 3.0 | 0.00 | 0.01 | 0.00 | 84 | 1003.5 |
| 20260508073037 | 34 | 0 | 0.0 | 1.0 | 0.00 | 0.01 | 0.00 | 80 | 1003.5 |
| 20260508071539 | 36 | 302 | 1.0 | 6.0 | 0.00 | 0.01 | 0.00 | 76 | 1003.4 |
| 20260508070039 | 37 | 295 | 2.0 | 6.0 | 0.00 | 0.01 | 0.00 | 75 | 1003.5 |
| 20260508064538 | 39 | 304 | 4.0 | 8.0 | 0.00 | 0.08 | 0.00 | 70 | 1003.4 |
| 20260508063105 | 39 | 300 | 3.0 | 6.0 | 0.00 | 0.08 | 0.00 | 69 | 1003.7 |
| 20260508061540 | 40 | 262 | 5.0 | 11.0 | 0.00 | 0.08 | 0.00 | 69 | 1003.8 |
| 20260508060040 | 40 | 290 | 5.0 | 12.0 | 0.00 | 0.08 | 0.00 | 68 | 1003.6 |
| 20260508054542 | 40 | 305 | 6.0 | 9.0 | 0.00 | 0.16 | 0.00 | 68 | 1003.9 |
| 20260508053050 | 39 | 307 | 2.0 | 5.0 | 0.00 | 0.16 | 0.00 | 70 | 1004.3 |
| 20260508051600 | 40 | 294 | 3.0 | 9.0 | 0.00 | 0.16 | 0.00 | 66 | 1004.1 |
| 20260508050037 | 39 | 286 | 4.0 | 8.0 | 0.00 | 0.16 | 0.00 | 71 | 1004.5 |
| 20260508044542 | 37 | 289 | 1.0 | 4.0 | 0.00 | 0.17 | 0.00 | 75 | 1004.6 |
| 20260508043037 | 37 | 273 | 1.0 | 4.0 | 0.00 | 0.17 | 0.00 | 75 | 1004.7 |
| 20260508041536 | 40 | 286 | 2.0 | 7.0 | 0.00 | 0.17 | 0.00 | 67 | 1004.8 |
| 20260508040043 | 41 | 289 | 3.0 | 10.0 | 0.00 | 0.17 | 0.00 | 64 | 1005.0 |
| 20260508034543 | 40 | 272 | 3.0 | 7.0 | 0.00 | 0.22 | 0.17 | 68 | 1004.9 |
| 20260508033044 | 39 | 240 | 0.0 | 5.0 | 0.00 | 0.22 | 0.17 | 68 | 1004.9 |
| 20260508031539 | 42 | 296 | 3.0 | 8.0 | 0.00 | 0.22 | 0.17 | 63 | 1004.8 |
| 20260508030047 | 43 | 298 | 5.0 | 9.0 | 0.00 | 0.22 | 0.17 | 60 | 1004.6 |
| 20260508024536 | 42 | 327 | 2.0 | 8.0 | 0.00 | 0.24 | 0.17 | 65 | 1004.6 |
| 20260508023042 | 44 | 289 | 2.0 | 8.0 | 0.00 | 0.24 | 0.17 | 62 | 1004.7 |
| 20260508021549 | 44 | 313 | 5.0 | 12.0 | 0.00 | 0.24 | 0.17 | 58 | 1004.8 |
| 20260508020037 | 44 | 304 | 4.0 | 8.0 | 0.00 | 0.24 | 0.17 | 58 | 1004.9 |
| 20260508014547 | 45 | 299 | 5.0 | 9.0 | 0.00 | 0.35 | 0.17 | 57 | 1005.1 |
| 20260508013035 | 45 | 317 | 2.0 | 8.0 | 0.00 | 0.35 | 0.17 | 60 | 1005.0 |
| 20260508011547 | 46 | 288 | 3.0 | 10.0 | 0.00 | 0.35 | 0.17 | 56 | 1004.8 |
| 20260508010056 | 47 | 298 | 4.0 | 8.0 | 0.00 | 0.35 | 0.17 | 56 | 1004.8 |
| 20260508004537 | 47 | 323 | 2.0 | 9.0 | 0.00 | 0.43 | 0.17 | 56 | 1004.8 |
| 20260508003043 | 48 | 321 | 4.0 | 11.0 | 0.00 | 0.43 | 0.17 | 55 | 1004.7 |
| 20260508001544 | 49 | 310 | 8.0 | 18.0 | 0.00 | 0.43 | 0.17 | 53 | 1004.5 |
| 20260508000045 | 49 | 311 | 4.0 | 17.0 | 0.00 | 0.43 | 0.17 | 56 | 1004.3 |
| 20260507234538 | 50 | 292 | 7.0 | 18.0 | 0.00 | 0.60 | 0.17 | 57 | 1004.0 |
| 20260507233040 | 51 | 336 | 8.0 | 17.0 | 0.00 | 0.60 | 0.17 | 57 | 1003.5 |
| 20260507231536 | 52 | 335 | 4.0 | 15.0 | 0.00 | 0.60 | 0.17 | 60 | 1003.1 |
| 20260507230054 | 53 | 334 | 6.0 | 18.0 | 0.00 | 0.60 | 0.17 | 63 | 1002.9 |
| 20260507224543 | 53 | 9 | 5.0 | 14.0 | 0.00 | 0.74 | 0.17 | 66 | 1002.6 |
| 20260507223124 | 53 | 309 | 5.0 | 11.0 | 0.00 | 0.74 | 0.17 | 71 | 1002.5 |
| 20260507221536 | 54 | 24 | 4.0 | 11.0 | 0.00 | 0.74 | 0.17 | 67 | 1002.4 |
| 20260507220036 | 55 | 0 | 2.0 | 6.0 | 0.00 | 0.74 | 0.17 | 66 | 1002.2 |
| 20260507214539 | 54 | 22 | 2.0 | 5.0 | 0.00 | 0.81 | 0.17 | 67 | 1002.2 |
| 20260507213035 | 55 | 31 | 3.0 | 10.0 | 0.00 | 0.81 | 0.17 | 65 | 1002.2 |
| 20260507211539 | 54 | 317 | 2.0 | 7.0 | 0.00 | 0.81 | 0.17 | 70 | 1002.2 |
| 20260507210042 | 53 | 325 | 2.0 | 10.0 | 0.00 | 0.81 | 0.17 | 72 | 1002.2 |
| 20260507204540 | 54 | 296 | 4.0 | 13.0 | 0.00 | 0.82 | 0.17 | 67 | 1001.9 |
| 20260507203040 | 56 | 331 | 9.0 | 19.0 | 0.00 | 0.82 | 0.17 | 61 | 1001.8 |
| 20260507201540 | 59 | 331 | 6.0 | 15.0 | 0.00 | 0.82 | 0.17 | 53 | 1001.4 |
| 20260507200053 | 58 | 263 | 7.0 | 17.0 | 0.00 | 0.82 | 0.17 | 54 | 1001.3 |
| 20260507194538 | 59 | 275 | 4.0 | 11.0 | 0.00 | 0.82 | 0.17 | 54 | 1001.4 |
| 20260507193045 | 56 | 241 | 7.0 | 13.0 | 0.00 | 0.82 | 0.17 | 56 | 1001.7 |
| 20260507191536 | 56 | 336 | 6.0 | 17.0 | 0.00 | 0.82 | 0.17 | 56 | 1001.7 |
| 20260507190049 | 57 | 260 | 4.0 | 11.0 | 0.00 | 0.82 | 0.17 | 56 | 1001.6 |
| 20260507184540 | 57 | 275 | 5.0 | 12.0 | 0.00 | 0.82 | 0.17 | 56 | 1001.8 |
| 20260507183040 | 58 | 246 | 4.0 | 9.0 | 0.00 | 0.82 | 0.17 | 55 | 1001.8 |
| 20260507181537 | 57 | 252 | 4.0 | 10.0 | 0.00 | 0.82 | 0.17 | 57 | 1002.0 |
| 20260507180036 | 57 | 267 | 3.0 | 7.0 | 0.00 | 0.82 | 0.17 | 56 | 1002.0 |
| 20260507174547 | 58 | 218 | 4.0 | 10.0 | 0.00 | 0.82 | 0.17 | 55 | 1002.1 |
| 20260507173041 | 59 | 190 | 4.0 | 15.0 | 0.00 | 0.82 | 0.17 | 57 | 1002.1 |
| 20260507171539 | 59 | 196 | 4.0 | 10.0 | 0.00 | 0.82 | 0.17 | 51 | 1002.1 |
| 20260507170041 | 59 | 323 | 2.0 | 12.0 | 0.00 | 0.82 | 0.17 | 59 | 1002.3 |
| 20260507164543 | 57 | 217 | 3.0 | 10.0 | 0.00 | 0.82 | 0.17 | 57 | 1002.5 |
| 20260507163036 | 58 | 300 | 4.0 | 9.0 | 0.00 | 0.82 | 0.17 | 57 | 1002.7 |
| 20260507161551 | 57 | 0 | 4.0 | 12.0 | 0.00 | 0.82 | 0.17 | 60 | 1002.9 |
| 20260507160040 | 56 | 285 | 1.0 | 8.0 | 0.00 | 0.82 | 0.17 | 62 | 1002.8 |
| 20260507154542 | 55 | 0 | 1.0 | 9.0 | 0.00 | 0.82 | 0.17 | 61 | 1003.0 |
| 20260507153041 | 55 | 277 | 2.0 | 11.0 | 0.00 | 0.82 | 0.17 | 68 | 1003.3 |
| 20260507151537 | 55 | 289 | 5.0 | 11.0 | 0.00 | 0.82 | 0.17 | 66 | 1003.5 |
| 20260507150048 | 54 | 287 | 3.0 | 10.0 | 0.00 | 0.82 | 0.17 | 69 | 1003.8 |
| 20260507144539 | 54 | 269 | 1.0 | 8.0 | 0.00 | 0.82 | 0.17 | 72 | 1003.8 |
| 20260507143035 | 51 | 332 | 2.0 | 8.0 | 0.00 | 0.82 | 0.17 | 72 | 1003.9 |
| 20260507141543 | 53 | 10 | 0.0 | 6.0 | 0.00 | 0.82 | 0.17 | 77 | 1003.9 |
| 20260507140040 | 50 | 249 | 3.0 | 9.0 | 0.00 | 0.82 | 0.17 | 79 | 1004.1 |
| 20260507134536 | 50 | 311 | 3.0 | 7.0 | 0.00 | 0.82 | 0.17 | 81 | 1004.0 |
| 20260507133036 | 50 | 352 | 3.0 | 7.0 | 0.00 | 0.82 | 0.17 | 81 | 1004.3 |
| 20260507131536 | 49 | 292 | 4.0 | 10.0 | 0.00 | 0.82 | 0.17 | 81 | 1004.2 |
| 20260507130054 | 49 | 317 | 3.0 | 9.0 | 0.00 | 0.82 | 0.17 | 82 | 1004.3 |
| 20260507124547 | 47 | 315 | 1.0 | 7.0 | 0.00 | 0.82 | 0.17 | 86 | 1004.2 |
| 20260507123041 | 47 | 291 | 5.0 | 9.0 | 0.00 | 0.82 | 0.17 | 86 | 1004.4 |
| 20260507121539 | 47 | 309 | 1.0 | 8.0 | 0.00 | 0.82 | 0.17 | 90 | 1004.6 |
| 20260507120043 | 46 | 301 | 2.0 | 7.0 | 0.00 | 0.82 | 0.17 | 93 | 1004.2 |
| 20260507114539 | 45 | 300 | 1.0 | 6.0 | 0.00 | 0.83 | 0.17 | 95 | 1004.9 |
| 20260507113037 | 45 | 284 | 3.0 | 10.0 | 0.00 | 0.83 | 0.17 | 95 | 1004.6 |
| 20260507111536 | 45 | 294 | 5.0 | 10.0 | 0.00 | 0.83 | 0.17 | 96 | 1004.2 |
| 20260507110044 | 44 | 293 | 4.0 | 9.0 | 0.00 | 0.83 | 0.17 | 96 | 1004.3 |
| 20260507104536 | 45 | 308 | 3.0 | 9.0 | 0.00 | 0.83 | 0.17 | 97 | 1004.1 |
| 20260507103040 | 44 | 284 | 4.0 | 9.0 | 0.00 | 0.83 | 0.17 | 96 | 1004.0 |
| 20260507101542 | 45 | 304 | 3.0 | 6.0 | 0.00 | 0.83 | 0.17 | 97 | 1003.6 |
| 20260507100048 | 45 | 301 | 1.0 | 4.0 | 0.00 | 0.83 | 0.17 | 96 | 1003.8 |
| 20260507094537 | 45 | 268 | 1.0 | 6.0 | 0.00 | 0.83 | 0.17 | 97 | 1004.0 |
| 20260507093036 | 45 | 319 | 2.0 | 5.0 | 0.00 | 0.83 | 0.17 | 96 | 1003.7 |
| 20260507091540 | 45 | 317 | 2.0 | 5.0 | 0.00 | 0.83 | 0.17 | 97 | 1003.6 |
| 20260507090041 | 45 | 319 | 2.0 | 8.0 | 0.00 | 0.83 | 0.17 | 96 | 1003.4 |
| 20260507084544 | 45 | 288 | 0.0 | 5.0 | 0.00 | 0.83 | 0.17 | 96 | 1003.2 |
| 20260507083058 | 45 | 292 | 2.0 | 6.0 | 0.00 | 0.83 | 0.17 | 96 | 1003.5 |
| 20260507081537 | 45 | 296 | 2.0 | 6.0 | 0.01 | 0.83 | 0.17 | 96 | 1003.4 |